Precipitable_Water
1.87 2.03 2.01 1.68 1.28 1.23 0.98 0.91 1.08 1.00 1.00 1.16 1.20 1.27 1.19 1.25 1.20 1.09 1.70 1.78 1.86 1.89 2.01 2.10 2.21 2.22 2.21 2.17 2.09 2.05 1.93 1.85 1.77 1.73 1.66 1.64 1.61 1.62 1.70 1.83 1.85 1.89 1.85 1.75 1.78 1.81 1.83 1.90 1.94
1.87 1.89 1.82 1.40 1.20 1.02 1.05 1.11 1.07 1.01 1.05 1.19 1.12 1.21 1.18 1.17 1.41 1.45 1.60 1.82 1.88 1.93 1.98 2.03 2.13 2.20 2.23 2.17 2.17 2.17 2.17 2.16 1.98 1.80 1.67 1.70 1.69 1.72 1.77 1.83 1.87 1.89 1.75 1.75 1.75 1.78 1.79 1.79 1.89
1.76 1.81 1.47 1.16 1.08 1.01 0.95 1.18 1.13 1.16 1.26 1.17 1.05 1.12 1.15 1.17 1.41 1.54 1.78 1.85 1.91 1.98 2.03 2.06 2.09 2.17 2.19 2.13 2.16 2.20 2.19 2.19 2.12 1.98 1.76 1.72 1.73 1.79 1.84 1.87 1.84 1.79 1.73 1.74 1.69 1.70 1.73 1.78 1.86
1.69 1.64 1.39 1.15 1.01 1.13 1.13 1.21 1.20 1.26 1.32 1.35 1.16 1.07 1.27 1.38 1.36 1.69 1.77 1.82 1.89 1.98 2.00 1.99 2.06 2.18 2.11 2.10 2.10 2.14 2.18 2.17 2.06 1.91 1.78 1.74 1.77 1.79 1.81 1.84 1.86 1.75 1.77 1.67 1.60 1.64 1.66 1.70 1.76
1.59 1.37 1.10 1.01 0.99 1.12 1.23 1.26 1.29 1.36 1.38 1.34 1.30 1.18 1.14 1.39 1.53 1.67 1.73 1.83 1.83 1.96 1.98 2.02 2.06 2.17 2.15 2.10 2.11 2.09 2.13 2.08 2.00 1.93 1.81 1.75 1.80 1.82 1.86 1.84 1.82 1.85 1.80 1.77 1.66 1.60 1.62 1.65 1.72
1.36 1.24 1.02 0.88 0.99 1.11 1.22 1.30 1.31 1.32 1.37 1.33 1.26 1.11 1.15 1.45 1.49 1.64 1.73 1.78 1.88 1.99 2.06 2.10 2.10 2.21 2.21 2.16 2.14 2.14 2.10 2.01 2.03 1.96 1.85 1.82 1.80 1.86 1.85 1.87 1.86 1.84 1.80 1.78 1.69 1.63 1.64 1.62 1.68
1.07 0.96 0.83 0.87 0.88 1.00 1.17 1.34 1.21 1.39 1.38 1.45 1.35 1.35 1.24 1.30 1.50 1.64 1.71 1.82 1.88 2.04 2.10 2.06 2.12 2.22 2.24 2.18 2.20 2.17 2.10 2.05 1.99 2.04 1.90 1.82 1.84 1.86 1.88 1.89 1.88 1.90 1.95 1.95 1.78 1.67 1.60 1.64 1.61
1.15 1.12 0.82 0.85 0.91 0.89 1.16 1.27 1.35 1.32 1.45 1.55 1.52 1.61 1.32 1.37 1.46 1.60 1.74 1.82 1.90 2.00 2.10 1.98 2.10 2.11 2.14 2.22 2.27 2.22 2.17 2.12 2.04 1.89 1.85 1.77 1.81 1.83 1.92 1.95 1.94 2.08 2.10 2.05 1.95 1.79 1.70 1.70 1.65
1.25 0.92 0.77 0.84 0.89 0.92 1.10 1.11 1.32 1.44 1.39 1.50 1.52 1.58 1.60 1.57 1.45 1.50 1.58 1.68 1.85 1.98 2.02 1.97 2.27 2.33 2.22 2.27 2.28 2.27 2.23 2.22 2.09 1.91 1.77 1.76 1.83 1.76 1.94 2.14 2.14 2.19 2.11 1.98 1.92 1.91 1.67 1.63 1.62
1.06 0.76 0.79 0.93 0.97 0.98 1.09 1.15 1.21 1.28 1.31 1.39 1.47 1.62 1.72 1.61 1.45 1.36 1.40 1.53 1.74 1.91 2.00 2.15 2.26 2.18 2.12 2.20 2.28 2.29 2.26 2.26 2.16 2.02 1.87 1.90 2.01 2.03 2.23 2.11 2.09 2.08 2.03 1.91 1.86 1.79 1.68 1.55 1.70
0.81 0.71 0.88 0.92 0.93 1.04 1.03 1.09 1.24 1.24 1.32 1.43 1.48 1.56 1.67 1.65 1.47 1.37 1.45 1.53 1.65 1.82 1.91 2.05 2.04 2.03 2.06 2.15 2.20 2.23 2.24 2.22 2.19 2.03 1.92 1.93 1.82 1.83 1.99 2.04 2.04 2.16 2.03 2.10 1.93 1.76 1.72 1.66 1.65
0.75 0.70 0.81 0.86 0.95 1.01 1.01 1.10 1.12 1.11 1.25 1.37 1.49 1.60 1.65 1.57 1.47 1.41 1.45 1.55 1.58 1.77 1.84 1.93 1.95 2.03 2.00 2.13 2.10 2.18 2.17 2.18 2.14 1.98 1.92 1.87 1.81 1.79 2.02 2.20 2.39 2.11 2.14 1.97 1.93 1.85 1.87 1.81 1.77
0.58 0.59 0.74 0.86 0.87 0.95 0.99 1.01 1.03 1.11 1.25 1.33 1.41 1.47 1.49 1.51 1.52 1.49 1.50 1.65 1.60 1.58 1.79 1.81 1.97 2.06 2.13 2.20 2.18 2.14 2.15 2.09 2.32 2.04 1.85 1.80 1.91 1.78 1.98 2.06 2.08 1.96 1.95 1.90 1.83 1.80 1.67 1.67 1.70
0.60 0.65 0.71 0.72 0.76 0.87 0.80 0.88 0.96 1.03 1.19 1.22 1.27 1.31 1.44 1.50 1.52 1.48 1.43 1.47 1.55 1.60 1.60 1.79 2.00 2.01 2.00 1.95 2.16 2.13 2.20 2.21 2.33 2.14 1.89 1.75 1.76 1.84 2.04 2.02 2.07 2.02 1.94 1.97 1.94 1.86 1.75 1.73 1.77
0.61 0.64 0.72 0.58 0.60 0.68 0.64 0.94 0.82 0.94 1.01 1.09 1.18 1.24 1.32 1.41 1.51 1.47 1.41 1.44 1.47 1.53 1.61 1.73 1.88 2.00 1.99 2.00 2.07 2.12 2.04 2.24 2.20 2.10 1.93 1.76 1.83 1.97 2.19 2.03 2.15 1.99 2.01 1.91 1.85 1.86 1.83 1.74 1.73
0.58 0.62 0.57 0.58 0.51 0.56 0.66 0.65 0.87 0.92 0.97 1.00 1.08 1.11 1.20 1.27 1.35 1.46 1.48 1.40 1.48 1.57 1.65 1.76 1.85 1.95 2.04 2.05 2.12 2.08 2.12 2.12 2.18 2.11 1.88 1.65 1.76 1.97 1.93 2.07 2.11 2.07 2.03 1.96 1.89 1.96 1.82 1.79 1.82
0.55 0.54 0.50 0.47 0.50 0.45 0.53 0.51 0.72 0.82 0.88 0.96 1.04 1.11 1.13 1.18 1.32 1.40 1.50 1.53 1.54 1.64 1.74 1.74 1.89 1.89 2.06 2.16 2.10 2.07 2.12 2.08 2.28 2.05 2.00 1.65 1.79 1.86 2.05 2.14 2.24 2.08 2.03 1.95 1.89 1.94 1.89 1.75 1.79
0.50 0.46 0.45 0.43 0.46 0.43 0.43 0.44 0.47 0.68 0.77 0.88 1.06 1.14 1.15 1.16 1.23 1.35 1.47 1.52 1.60 1.66 1.77 1.75 1.89 1.91 2.08 2.11 2.14 2.02 2.07 2.13 2.21 2.07 1.98 1.95 1.86 1.94 1.96 2.12 2.19 2.10 2.06 1.99 1.95 1.94 1.90 1.80 1.81
0.35 0.36 0.41 0.45 0.45 0.40 0.41 0.40 0.43 0.49 0.62 0.76 0.91 1.07 1.17 1.20 1.31 1.37 1.43 1.53 1.59 1.69 1.70 1.74 1.80 1.97 2.04 2.04 2.04 1.93 1.93 1.98 2.06 1.97 2.09 1.97 1.92 1.97 2.01 2.21 2.08 2.07 2.04 2.12 1.95 1.91 1.71 1.71 1.77
0.34 0.36 0.40 0.43 0.44 0.38 0.38 0.36 0.43 0.48 0.53 0.64 0.80 0.92 1.08 1.20 1.28 1.33 1.38 1.44 1.52 1.62 1.68 1.68 1.74 1.83 1.90 1.84 2.02 2.03 2.02 1.99 2.06 2.02 1.96 1.87 1.86 2.08 2.02 2.16 2.03 2.02 2.03 1.97 1.94 1.80 1.71 1.71 1.65
0.27 0.33 0.42 0.37 0.36 0.42 0.40 0.39 0.44 0.52 0.56 0.61 0.70 0.81 0.98 1.10 1.19 1.28 1.35 1.39 1.46 1.58 1.63 1.69 1.72 1.74 1.79 1.87 1.82 1.99 2.09 1.99 2.02 1.94 1.92 1.94 1.87 1.93 2.07 2.05 2.06 2.06 2.05 1.93 1.88 1.78 1.76 1.72 1.63
0.29 0.45 0.40 0.34 0.36 0.33 0.37 0.29 0.44 0.45 0.50 0.58 0.63 0.75 0.85 1.01 1.16 1.27 1.30 1.34 1.41 1.51 1.66 1.73 1.80 1.85 1.71 1.67 1.72 1.73 1.74 1.74 1.86 1.95 1.91 1.88 1.89 1.88 1.95 1.98 1.99 2.05 2.02 2.04 1.93 1.83 1.85 1.76 1.66
0.34 0.44 0.37 0.37 0.36 0.37 0.39 0.30 0.48 0.48 0.49 0.54 0.65 0.65 0.80 0.95 1.04 1.18 1.30 1.37 1.44 1.50 1.58 1.70 1.80 1.83 1.82 1.70 1.69 1.66 1.77 1.89 1.97 1.89 1.93 1.95 1.86 1.79 1.80 1.86 1.93 1.94 2.02 2.13 2.14 1.95 1.80 1.72 1.84
0.39 0.37 0.40 0.41 0.39 0.34 0.36 0.26 0.44 0.49 0.48 0.56 0.64 0.64 0.73 0.84 0.94 1.10 1.31 1.39 1.42 1.53 1.58 1.66 1.74 1.85 1.87 1.96 1.72 1.61 1.66 1.84 1.87 1.93 1.91 1.92 1.94 1.80 1.74 1.81 1.86 1.82 1.91 2.18 2.11 2.05 1.90 1.76 1.73
0.38 0.36 0.36 0.41 0.41 0.34 0.38 0.26 0.36 0.47 0.52 0.57 0.62 0.64 0.75 0.83 0.88 1.02 1.17 1.23 1.29 1.41 1.55 1.62 1.67 1.75 1.89 1.88 1.78 1.72 1.65 1.77 1.80 1.85 1.93 1.94 1.91 1.92 1.78 1.68 1.83 1.80 1.75 1.97 2.08 2.03 1.75 1.65 1.64
0.42 0.38 0.37 0.34 0.34 0.41 0.42 0.31 0.41 0.45 0.54 0.59 0.74 0.75 0.75 0.88 0.95 1.04 1.18 1.24 1.25 1.31 1.45 1.61 1.67 1.63 1.74 1.76 1.73 1.78 1.77 1.79 1.77 1.87 1.93 1.94 1.86 1.84 1.89 1.81 1.85 1.95 1.89 1.72 1.93 1.90 1.71 1.57 1.51
0.50 0.41 0.46 0.36 0.34 0.35 0.37 0.44 0.43 0.48 0.52 0.62 0.67 0.79 0.88 0.90 1.00 1.02 1.14 1.23 1.27 1.32 1.40 1.50 1.58 1.70 1.72 1.71 1.72 1.71 1.76 1.73 1.72 1.81 1.84 1.93 1.90 1.84 1.91 1.95 1.96 1.96 1.94 1.79 1.73 1.76 1.72 1.66 1.80
0.44 0.49 0.40 0.42 0.33 0.34 0.40 0.48 0.40 0.48 0.52 0.57 0.66 0.76 0.78 0.91 0.94 1.07 1.15 1.23 1.30 1.39 1.47 1.57 1.52 1.59 1.71 1.78 1.82 1.75 1.77 1.77 1.68 1.71 1.76 1.78 1.87 1.88 1.89 1.89 1.94 1.95 1.97 1.84 1.67 1.64 1.70 1.79 1.70
0.50 0.48 0.48 0.44 0.38 0.33 0.31 0.40 0.60 0.63 0.65 0.65 0.71 0.80 0.85 0.91 1.00 0.96 1.15 1.26 1.32 1.41 1.47 1.54 1.58 1.57 1.63 1.71 1.81 1.81 1.82 1.82 1.80 1.63 1.63 1.72 1.77 1.85 1.82 1.92 1.88 2.00 1.89 1.71 1.60 1.62 1.76 1.88 1.84
0.54 0.49 0.43 0.37 0.40 0.46 0.47 0.46 0.69 0.67 0.77 0.81 0.84 0.87 0.92 0.95 1.00 1.07 1.06 1.29 1.35 1.40 1.46 1.50 1.58 1.61 1.70 1.74 1.74 1.76 1.88 1.85 1.78 1.72 1.62 1.63 1.65 1.75 1.83 1.86 1.86 1.91 1.80 1.63 1.62 1.72 1.76 1.74 1.74
Wind_Speed
1 2 1 0 0 2 7 6 8 5 7 7 6 6 5 7 6 3 9 10 13 11 10 10 9 10 10 10 12 12 12 12 11 10 9 8 8 7 6 5 4 4 4 4 4 3 3 3 4
1 1 2 0 1 2 4 6 6 8 6 6 4 3 5 7 6 7 9 11 12 10 10 9 8 9 10 12 12 12 11 11 10 9 8 8 7 6 5 4 4 4 4 4 4 4 4 4 4
0 1 1 2 0 1 1 3 5 5 4 3 3 3 4 4 3 7 9 11 11 10 11 9 8 11 12 12 11 10 10 10 10 9 8 7 6 5 5 4 4 4 4 4 4 4 4 4 5
0 2 1 2 4 2 3 3 2 4 4 4 3 4 4 3 4 5 10 11 10 10 9 8 8 12 12 11 10 10 9 10 9 8 7 6 6 5 5 5 5 5 5 4 4 4 4 5 6
1 0 1 2 2 0 1 1 1 3 1 3 4 3 4 2 3 7 11 11 10 10 9 8 9 12 11 10 9 9 9 9 9 8 7 6 6 5 6 6 6 5 4 4 5 5 5 5 6
2 1 0 1 0 1 1 3 2 1 1 1 2 3 4 1 4 9 11 10 11 10 10 10 10 9 10 9 6 8 6 8 9 8 7 7 7 7 7 7 6 5 5 5 5 5 6 6 7
1 4 4 4 1 0 2 3 4 3 1 1 2 2 3 2 6 10 10 10 11 9 10 8 9 7 9 9 6 7 6 6 10 9 8 8 8 7 7 7 6 6 5 5 6 6 6 7 7
2 2 6 4 4 3 2 4 4 4 3 3 2 3 1 3 7 10 10 10 10 9 9 8 8 7 7 7 6 7 8 7 9 10 8 8 8 8 8 6 6 5 5 5 6 6 7 7 7
2 2 5 7 7 4 1 2 3 5 4 4 2 3 3 5 8 10 11 10 10 9 9 9 8 7 7 7 7 7 7 9 10 10 8 8 9 8 7 6 5 5 6 5 5 6 7 8 7
3 5 5 5 6 5 3 3 0 2 5 4 4 1 4 6 8 11 10 11 11 10 9 9 8 7 6 8 8 6 9 9 9 9 9 8 8 7 6 6 6 6 6 6 6 7 7 8 7
3 3 3 5 5 4 3 2 2 4 4 6 6 4 5 7 8 11 10 11 11 11 10 9 9 8 7 8 7 6 7 8 9 10 10 9 8 7 7 6 6 5 5 5 7 9 9 7 7
2 3 3 3 3 2 3 3 3 3 3 4 4 5 6 7 9 11 11 10 12 12 10 10 10 9 8 8 7 6 6 8 9 11 11 9 9 8 7 4 3 4 5 6 8 7 7 8 7
3 3 3 3 3 3 3 3 4 3 2 2 1 4 6 7 9 10 11 12 12 11 11 10 10 9 8 9 7 7 6 7 9 12 12 11 9 8 7 5 4 4 6 7 8 7 8 8 7
1 3 3 4 4 3 4 3 3 1 0 1 0 3 5 6 9 10 11 12 12 11 11 11 10 10 10 9 8 7 7 7 8 11 12 12 10 10 7 6 5 6 8 8 8 7 7 7 6
2 1 0 5 6 5 7 6 2 2 2 2 2 2 3 5 8 9 11 12 12 11 11 12 11 10 10 10 9 8 8 8 9 11 13 13 12 10 6 6 5 7 7 7 7 7 7 6 7
4 3 2 4 6 5 6 2 2 3 4 4 4 4 4 5 6 8 10 12 12 12 12 12 11 11 11 10 10 9 8 8 9 11 13 13 12 10 8 6 5 8 8 7 7 6 6 6 7
4 4 3 3 4 6 5 7 3 3 4 5 4 5 6 6 6 7 9 11 12 12 12 12 11 11 11 11 11 10 9 9 10 13 13 14 13 12 9 7 7 7 9 8 6 6 5 6 5
3 4 3 6 5 7 9 7 7 3 5 6 5 6 7 8 8 8 9 10 11 11 12 12 11 11 12 11 11 11 10 9 11 12 13 15 14 13 10 8 7 8 9 7 6 6 6 5 4
6 8 8 7 5 8 10 12 9 9 6 6 7 7 8 9 9 9 10 10 10 11 12 12 13 12 12 11 12 12 11 10 10 13 13 14 14 13 12 10 9 8 9 6 6 7 7 7 5
9 9 9 6 5 10 11 11 10 5 6 6 7 9 9 9 10 11 11 11 12 11 12 13 13 13 13 12 13 12 13 12 12 12 15 15 15 13 13 10 10 9 8 7 6 7 8 8 6
10 11 9 8 10 14 7 8 1 1 2 4 6 7 9 10 10 11 12 12 12 12 11 12 14 13 14 14 13 13 12 13 13 14 15 16 17 15 14 13 10 11 10 8 7 7 8 8 7
9 6 5 8 10 9 9 7 1 1 3 5 7 7 8 8 10 11 12 13 13 13 13 12 13 14 14 15 13 14 14 14 14 16 15 16 19 17 16 14 13 12 12 9 8 7 8 8 6
8 4 7 9 11 12 11 7 4 4 2 7 6 5 7 7 9 11 12 12 13 13 13 14 13 14 14 14 15 14 14 15 14 16 16 17 18 20 19 17 15 14 14 12 10 9 8 9 7
7 6 10 11 9 9 2 6 5 3 5 7 5 3 4 5 8 8 10 11 13 13 13 14 15 14 15 15 16 15 14 15 16 16 17 16 18 19 20 19 17 16 15 14 14 11 10 10 9
7 8 8 6 7 1 2 6 3 2 4 7 4 3 4 4 6 7 8 8 11 13 13 13 14 16 15 15 16 16 15 15 16 17 18 17 17 18 21 21 19 17 17 17 15 14 12 11 11
9 10 9 4 8 4 4 5 2 3 4 4 3 3 4 5 6 8 9 9 9 11 13 13 14 15 16 16 16 16 16 15 15 17 18 19 18 20 20 21 22 19 18 18 18 16 15 14 13
4 7 10 10 12 10 8 3 8 5 5 0 2 3 3 6 8 9 10 11 11 11 12 13 14 15 16 16 16 16 17 16 15 16 18 18 18 18 19 21 21 21 20 19 19 19 17 17 15
12 13 11 10 10 10 4 9 6 8 5 3 3 3 5 5 8 12 12 13 13 13 13 12 14 15 16 17 16 16 16 17 16 16 17 19 18 19 19 21 22 21 20 20 20 19 19 19 18
10 11 11 13 12 14 13 6 9 10 6 6 6 7 8 8 9 10 14 15 15 14 14 14 14 15 16 17 17 17 17 17 17 16 16 17 18 18 20 20 21 21 20 21 21 19 19 19 19
15 17 18 17 16 15 14 16 2 7 5 8 9 11 10 10 11 11 11 15 16 17 16 16 16 16 16 17 18 19 18 18 18 18 17 17 18 19 19 20 21 22 21 20 20 20 19 19 18
Wind_Direction
141 153 188 122 322 126 66 48 68 85 75 83 77 48 77 47 30 63 130 137 144 143 148 152 152 158 157 156 151 144 142 142 142 141 139 135 132 129 127 121 106 94 92 106 114 126 141 154 162
110 151 171 246 41 102 68 53 70 57 67 97 80 61 60 56 45 118 131 142 146 145 148 154 159 158 157 151 152 153 150 146 145 145 143 137 136 133 129 124 109 98 94 103 110 115 125 135 147
134 167 244 291 118 303 156 79 80 78 81 79 65 27 22 42 78 131 141 146 148 145 146 149 158 164 155 155 153 152 153 154 151 146 144 142 139 136 134 124 112 104 97 100 106 116 122 125 136
80 163 172 257 51 79 83 125 108 95 75 37 37 63 65 28 120 145 152 154 148 148 150 147 147 157 158 157 157 157 157 157 157 152 149 145 142 138 131 123 113 104 97 95 97 120 125 126 133
97 114 239 87 106 96 139 126 242 164 290 40 48 44 41 66 132 145 156 156 157 153 155 149 147 155 157 160 160 164 165 165 164 161 157 150 144 137 131 124 113 102 95 96 96 112 121 126 134
257 342 185 97 89 252 261 227 251 204 251 37 4 70 30 92 158 157 160 162 158 153 153 152 156 162 171 168 181 177 177 191 172 167 162 152 145 134 131 125 113 98 99 93 93 112 120 122 130
26 58 25 23 358 44 275 241 240 212 266 311 333 42 57 124 152 162 165 165 168 168 163 161 161 162 172 178 170 176 156 151 177 161 155 149 142 137 134 127 116 101 98 95 95 109 120 122 128
60 20 56 32 59 17 307 251 266 247 261 267 300 286 175 142 162 165 166 163 172 176 174 175 177 177 181 177 164 159 172 150 153 162 151 149 145 141 136 128 115 106 101 103 104 108 119 119 115
12 16 46 33 28 47 39 288 260 244 246 252 267 347 145 159 166 168 168 173 182 186 184 183 183 175 183 191 185 178 158 166 161 160 157 152 149 143 141 128 119 96 115 102 112 118 120 126 118
12 48 26 16 32 50 52 348 292 220 251 254 218 202 159 171 179 176 183 186 184 186 188 187 190 192 190 190 184 187 176 169 170 173 165 160 157 150 137 137 129 109 111 102 105 119 127 126 126
24 28 3 30 17 15 26 332 312 277 317 262 232 200 196 188 191 192 187 192 193 191 190 190 190 186 179 173 176 182 163 175 175 176 171 166 160 154 154 142 140 123 119 118 111 112 125 125 123
51 29 8 5 12 356 353 2 325 328 339 307 255 213 210 208 203 196 196 195 197 191 196 190 188 188 185 183 185 179 173 178 184 181 179 170 165 161 159 150 74 127 139 124 124 117 111 122 124
26 16 5 5 359 337 332 314 321 299 306 343 241 210 207 212 206 203 197 196 198 195 196 196 194 196 196 194 191 189 182 184 184 183 181 178 177 169 162 146 131 122 134 137 136 122 120 119 121
341 358 25 10 7 335 320 311 314 359 288 307 233 198 207 218 206 204 202 201 199 199 200 198 200 205 203 200 197 194 194 184 186 185 189 186 180 175 169 157 140 133 130 130 129 123 120 121 124
312 304 134 17 0 352 322 260 272 302 275 235 215 206 204 216 208 207 206 204 206 207 203 202 206 204 202 203 203 204 201 205 199 196 189 187 184 183 174 172 167 159 150 144 139 135 123 120 118
240 246 253 16 340 350 331 54 351 284 251 241 228 219 214 210 210 210 206 208 208 209 208 208 209 207 209 208 207 208 207 210 198 192 192 191 191 184 186 181 172 172 169 156 152 145 136 132 123
210 258 338 320 348 331 327 319 304 263 256 256 239 221 224 212 210 209 209 212 207 212 211 211 213 212 207 206 209 211 211 209 200 201 196 194 193 193 191 193 174 169 170 165 162 159 162 154 149
299 279 291 316 329 320 312 301 302 233 254 255 239 233 228 221 220 210 209 211 211 209 215 215 216 214 209 214 213 209 210 210 208 203 202 199 198 196 195 188 172 178 176 176 182 184 175 176 170
278 263 282 297 327 303 311 302 294 279 243 253 253 241 230 231 220 213 215 212 214 217 213 217 216 215 213 213 212 209 209 211 209 206 200 194 197 198 200 197 189 184 187 192 199 199 196 193 187
260 261 271 301 296 307 307 308 290 287 251 245 247 252 243 229 221 217 219 218 219 219 219 218 219 218 217 216 216 216 217 215 212 207 204 203 201 199 202 202 196 196 195 201 205 206 206 201 202
251 259 277 306 310 300 286 306 294 236 254 263 268 256 244 233 226 220 222 223 222 221 221 219 219 218 219 220 220 219 220 219 215 210 209 209 208 207 206 207 210 206 206 208 210 206 205 211 214
261 240 276 285 295 307 309 299 146 221 253 267 267 249 244 235 229 224 224 224 223 223 224 224 223 220 220 220 222 223 222 219 220 217 216 215 213 213 214 214 215 213 213 213 212 209 209 206 218
255 304 281 286 286 290 287 262 182 242 305 327 320 271 227 236 227 226 224 224 225 223 226 227 224 221 221 222 225 224 225 225 221 219 218 220 217 218 220 220 220 220 221 217 215 210 214 214 230
255 279 275 261 270 278 72 291 196 126 329 333 321 257 238 234 224 225 223 227 228 224 225 225 223 224 224 225 226 227 226 226 224 223 221 221 222 220 222 221 222 224 224 225 224 219 222 226 230
236 261 282 250 252 125 33 288 248 261 318 333 318 251 246 233 225 218 219 224 225 224 224 224 224 226 226 228 228 229 229 230 230 227 225 223 224 224 223 222 223 226 229 228 226 225 227 231 235
226 255 290 301 300 307 253 275 211 288 274 319 357 288 261 248 232 228 226 228 230 228 227 227 229 228 226 228 229 229 229 231 232 229 226 228 230 228 229 225 225 228 230 227 226 228 232 235 237
213 261 275 296 285 263 274 196 259 220 225 200 6 358 290 264 259 242 234 235 234 234 231 232 232 229 227 228 229 229 229 232 233 230 228 229 230 229 226 224 225 227 228 228 227 231 235 237 240
260 289 284 262 272 288 290 273 252 223 222 287 304 344 327 315 290 262 244 240 239 238 235 239 235 233 230 229 229 231 231 232 234 233 230 230 230 228 228 227 226 228 229 227 228 233 237 239 243
236 258 252 268 275 291 284 282 281 259 244 266 285 296 305 307 307 293 254 247 242 241 239 241 240 236 234 232 231 231 232 232 233 233 232 230 230 230 230 229 227 227 227 227 229 234 238 238 242
264 275 278 275 274 268 280 277 12 254 258 273 280 289 286 293 298 300 275 251 247 244 242 242 241 239 237 235 234 234 234 233 232 232 233 232 232 232 232 231 228 227 227 226 230 234 236 240 241